OPS 4682 DEB, 38406

Orbit data source: Space-Track

OPS 4682 DEB, 38406 is space debris in LEO originally from a launch on Sat, 03 Apr 1965 UTC launched from the Air Force Western Test Range (AFWTR). Debris objects in space refer to the collection of defunct objects orbiting the Earth. Examples of debris include non-operational satellites, rocket bodies, and fragments generated from explosions, collisions, or faulty payload assembly.

Loading next visibility...
Identifier
38406, 1965-027DK
Orbit
LEO
Country
Flag of USUS
Related business
Manufacturer
Unknown
Mission
Spacecraft
Bus & Motor
Unknown
Mass
Unknown
Launch date (UTC)
1965-04-03 (61 years ago)
Launch vehicle
Unknown
Launch site
Air Force Western Test Range (AFWTR)
Object type
Payload
Rocket body
Debris
Shape & HBR
Unknown shape, 0.1 m
Radar Cross Section
Small (<0.1 m²)

Expand to show TLE details & history
Last TLE update: 10 hours ago

TLE from 10 hours ago
0 OPS 4682 DEB
1 38406U 65027DK  25349.78373182 -.00000262  00000-0 -89223-3 0  9992
2 38406  90.2379   7.0776 0025440  18.5428 341.6616 13.00217226531430
Epoch: 2025-12-15T18:48Z
TLE epoch observation values (Epoch: 2025-12-15T18:48:34.429Z)
Latitude
0.00003°
Longitude
0.25681°
Altitude
1,245.673 km
Speed
7.241 km/s
True Right ascension
00h 28m 18s
True Declination
0° 00' 00"
Sunlit
Object was in daylight at epoch
Visualization orbit readout
Latitude
Unknown
Longitude
Unknown
Altitude
Unknown
Speed
Unknown
Apparent Right ascension
Unknown
Apparent Declination
Unknown
Sunlit
N/A
Visualization observer readout
Local Sidereal Time
03:26:42
Azimuth
Unknown
Elevation
Unknown
Doppler factor
Unknown
Orbital elements
Apogee altitude
1,277.79 km
Perigee altitude
1,238.935 km
Semi-major axis
7,636.499 km
Eccentricity
0.00254
Inclination
90.2379°
RAAN
7.0776°
Arg. of periapsis
18.5428°
True anomaly
341.5696°
Mean anomaly
341.6616°
Eccentric anomaly
341.61563°
Mean motion
3.25238 °/min
Orbital period
110.69 mins
BSTAR
-0.00089223
Loading maneuver chart data...
Computing Atmospheric mass density...
Loading historical data...
Loading historical data...
Loading historical data...
Loading historical data...
Loading historical data...
Loading historical data...
Loading historical data...

Documentation

Showing up to 5 results
|